Wind_Speed
12 12 13 13 13 13 14 14 14 14 14 15 15 15 17 18 16 17 20 10 7 5 5 6 7 8 4 3 4 4 4 3 3 2 1 15 10 15 20 29 10 15 26 40 38
13 13 13 14 14 14 15 15 15 15 15 15 16 17 18 19 19 18 13 11 11 7 3 8 12 6 5 7 4 4 3 5 2 6 4 11 21 18 11 16 10 19 33 41 42
14 14 15 15 15 16 16 15 15 15 15 15 16 17 17 18 19 5 2 9 10 6 1 4 7 13 10 5 6 3 3 12 18 22 18 9 12 10 21 3 31 36 43 44 42
15 15 16 16 16 16 17 16 16 16 15 16 16 17 17 14 4 2 4 3 8 8 5 12 6 13 2 3 5 6 12 16 14 24 20 11 20 12 12 11 29 45 48 46 43
17 17 17 17 17 17 17 17 16 16 15 15 16 16 16 9 17 9 10 3 7 10 9 10 13 8 5 6 2 3 5 23 32 34 36 29 14 11 13 30 33 42 43 44 45
18 18 18 18 19 18 18 18 16 16 16 15 15 15 13 7 9 5 6 6 7 12 10 10 14 11 14 4 5 6 4 26 34 41 14 19 14 10 24 35 35 39 37 40 42
19 19 19 19 19 19 19 18 17 16 16 15 14 15 16 27 4 7 5 9 10 13 11 11 12 10 8 5 9 9 12 14 8 5 3 18 5 8 35 39 36 35 36 40 38
20 19 19 19 20 20 19 18 18 17 16 15 13 13 15 22 18 18 16 19 11 9 11 11 13 14 11 25 3 10 7 7 8 7 2 8 5 13 34 35 32 33 36 39 37
20 20 19 20 21 21 20 18 19 17 16 14 9 8 17 11 16 17 15 17 12 12 14 15 20 16 16 8 5 5 10 7 15 3 3 5 6 15 32 34 30 33 35 36 38
21 20 19 20 21 22 20 18 16 16 14 11 11 6 21 14 7 15 15 13 18 15 22 21 12 4 2 4 7 10 7 7 6 4 6 0 1 14 27 30 33 34 34 36 41
21 21 20 19 19 22 19 12 7 1 5 13 9 15 25 12 15 11 15 14 17 15 6 9 3 5 11 8 2 7 4 4 5 7 5 4 4 4 20 20 24 30 33 36 42
21 21 20 18 18 19 19 13 7 7 12 19 23 31 36 25 18 18 12 19 13 8 3 3 4 9 6 5 8 7 4 3 4 6 3 8 10 9 16 25 29 33 33 36 38
20 20 20 18 18 16 16 8 12 23 6 19 30 30 37 13 17 24 13 23 6 6 8 8 7 7 6 5 6 6 4 2 2 5 5 3 8 12 12 30 33 33 40 40 45
20 20 20 19 12 9 9 7 18 5 3 8 7 13 23 17 8 26 21 25 6 11 4 4 4 8 3 4 3 2 0 4 1 6 3 5 5 5 8 14 24 34 33 39 43
22 20 18 18 14 15 8 11 10 8 3 5 6 4 18 19 6 10 18 23 11 7 7 6 10 8 4 5 5 7 3 2 5 2 6 11 3 11 3 7 22 26 38 39 44
23 20 20 16 20 11 9 7 3 5 7 6 7 6 7 10 13 3 8 13 20 8 5 7 2 5 8 1 4 6 9 22 7 5 4 9 7 7 7 9 17 24 37 37 36
24 20 23 21 15 3 4 4 4 4 5 6 4 5 6 7 6 7 5 3 7 6 6 3 5 4 5 6 4 2 7 2 4 2 5 3 5 7 7 7 10 21 31 34 39
23 21 21 24 14 13 7 4 4 5 6 6 6 4 9 6 7 8 5 7 5 6 4 7 5 7 8 9 10 8 7 5 5 2 4 6 3 4 6 7 13 17 28 26 24
24 18 21 16 15 15 7 3 8 6 3 6 10 4 4 5 7 9 9 9 9 10 11 6 7 1 1 4 11 7 5 6 6 3 2 5 6 8 7 9 12 17 26 22 20
23 18 18 15 15 21 4 6 6 4 6 6 2 4 9 4 4 9 10 9 8 14 9 9 4 0 1 5 3 7 12 4 3 2 3 4 5 4 7 4 5 1 20 24 24
16 9 10 14 19 15 4 8 5 8 14 5 5 7 6 7 3 2 9 11 15 13 14 9 7 5 5 1 7 2 4 5 6 5 5 3 6 8 14 14 8 11 25 27 27
9 2 6 24 5 3 3 6 3 4 18 7 5 8 7 4 2 1 5 10 18 15 10 10 7 4 3 3 3 2 3 6 6 4 4 3 6 9 20 19 18 21 22 31 35
16 7 15 19 3 3 5 8 10 11 13 6 5 5 6 7 1 5 6 6 14 11 13 8 3 4 5 4 1 4 5 5 5 5 7 5 6 5 23 9 23 27 23 36 39
6 4 2 21 9 2 4 7 8 15 10 12 12 7 4 4 3 4 7 7 18 6 29 17 6 9 11 8 5 4 6 13 7 5 8 7 11 9 4 6 11 27 30 34 40
8 4 7 4 5 7 2 5 14 15 8 6 7 9 9 3 6 3 4 7 12 13 2 6 6 2 5 7 8 7 7 5 2 13 5 17 8 6 5 9 17 28 30 35 36
8 7 9 9 13 6 4 5 11 15 6 15 5 13 10 8 8 7 1 1 3 8 8 8 5 5 2 8 9 6 12 12 20 24 18 9 7 8 23 30 34 36 28 22 18
16 9 4 8 6 4 1 9 15 14 13 15 12 2 5 11 12 8 6 4 6 2 3 1 6 6 5 7 9 2 9 15 20 13 10 6 9 9 22 20 27 26 36 32 30
Wind_Direction
325 325 325 324 323 323 322 321 323 324 323 321 320 321 316 315 311 295 280 257 238 266 280 335 356 306 285 13 50 67 51 300 260 299 139 127 113 136 149 140 160 188 169 161 161
324 322 321 319 320 318 317 317 317 318 319 317 317 319 319 321 315 292 278 237 230 231 294 19 33 110 335 4 14 75 157 242 307 343 324 150 131 129 127 146 111 122 147 154 160
320 318 317 316 317 315 312 313 313 313 314 314 313 316 319 325 324 305 310 215 211 218 269 89 117 28 328 1 355 12 197 310 297 306 310 210 149 127 129 131 146 144 153 158 161
315 314 313 314 313 310 308 308 309 308 309 309 310 314 318 321 297 69 38 197 206 217 192 129 145 139 98 350 103 354 348 303 308 315 317 287 153 148 168 171 159 155 156 161 169
313 313 314 312 308 306 306 305 305 304 305 305 307 310 316 301 269 282 274 249 216 209 174 136 150 141 155 212 317 164 19 309 304 296 289 263 186 151 137 149 154 154 160 167 173
313 313 312 310 307 305 303 301 301 299 299 299 301 301 302 269 276 253 230 232 253 223 179 159 181 194 164 90 123 226 323 243 272 266 253 132 133 109 148 149 152 158 167 174 178
313 312 311 309 305 303 301 298 297 293 291 292 294 290 282 257 180 320 240 277 270 236 190 178 175 188 122 50 284 279 351 321 284 5 98 108 69 146 156 156 159 166 172 179 184
311 311 310 307 304 301 299 297 293 287 284 285 286 287 264 265 269 253 243 258 234 249 212 206 233 233 105 170 360 24 339 357 321 344 11 125 203 155 159 157 165 172 177 184 189
310 309 309 307 303 300 299 298 289 284 280 279 277 265 268 258 241 227 223 234 227 246 236 228 242 219 147 136 113 124 247 248 297 174 360 52 131 171 168 165 169 179 184 189 194
309 308 308 306 305 302 302 301 290 282 270 265 236 282 254 244 307 226 212 232 227 242 249 248 222 187 118 120 197 177 207 226 247 319 61 1 166 170 182 173 177 183 190 193 199
310 308 306 304 305 303 305 318 303 231 270 236 234 220 268 285 287 253 219 212 229 232 221 262 98 212 229 202 122 123 173 180 277 317 12 323 209 233 199 201 185 187 193 199 203
309 307 305 303 299 296 298 292 290 328 298 277 257 260 265 267 295 255 250 227 207 218 106 344 215 223 219 117 120 155 205 233 307 278 148 273 269 249 188 208 198 192 196 202 206
305 304 304 301 296 290 280 303 348 340 270 274 248 240 248 248 236 253 253 216 165 186 208 187 232 182 175 151 165 173 175 218 86 327 232 165 292 254 210 203 196 206 202 199 204
306 303 304 304 296 274 275 309 330 355 8 272 217 240 223 227 274 247 262 202 179 194 199 214 197 142 100 255 245 200 295 142 128 40 279 103 288 278 174 192 190 200 200 201 205
310 301 297 300 282 280 286 300 357 126 334 237 212 216 197 173 190 223 224 185 194 181 134 229 151 152 149 218 176 233 261 74 12 355 310 301 124 269 314 176 192 198 200 202 204
307 300 289 286 278 293 279 298 21 52 256 286 166 164 118 164 230 295 212 211 213 189 107 169 192 179 185 166 290 82 52 312 306 144 220 235 176 279 246 189 191 200 200 201 201
301 297 283 270 260 261 302 346 59 171 306 287 224 145 154 171 198 193 234 204 181 169 207 146 202 221 130 93 340 98 123 7 312 97 207 250 156 243 300 271 173 178 199 199 202
305 297 273 260 251 251 273 62 192 229 255 316 351 301 177 155 221 208 203 229 239 148 140 159 276 181 170 168 187 185 160 146 241 275 271 321 353 274 299 299 108 141 158 159 186
317 302 276 252 236 213 188 137 209 208 291 4 339 156 235 206 163 181 205 216 208 186 194 153 246 105 194 177 140 216 140 177 110 206 292 294 302 312 324 48 83 105 110 107 106
328 313 279 249 205 180 102 237 226 244 19 27 298 21 355 309 150 191 188 208 218 200 168 212 241 274 179 82 28 176 155 117 59 177 235 299 280 232 298 324 75 114 122 115 103
331 323 326 162 167 161 175 240 280 300 340 358 315 287 234 261 107 241 219 247 197 213 195 184 167 239 117 48 172 184 131 77 140 145 162 185 255 217 221 229 165 210 148 127 109
358 339 172 151 98 164 218 220 315 300 305 297 263 250 226 244 223 324 220 223 214 196 186 200 158 161 182 196 223 172 160 137 124 244 256 186 264 222 206 228 174 171 157 130 122
339 302 185 182 141 233 272 258 244 268 264 261 290 306 314 250 236 188 303 283 292 214 192 178 187 101 3 5 244 206 190 141 106 82 241 181 263 217 225 175 178 162 136 128 127
360 1 51 229 279 108 352 278 274 272 259 254 265 296 295 309 131 285 300 302 344 315 209 165 142 180 207 196 156 184 203 187 151 142 242 220 258 301 185 186 137 124 128 127 135
16 350 7 334 322 326 324 257 290 287 269 277 301 230 226 211 334 302 299 331 341 358 277 143 145 124 195 221 157 199 207 197 91 267 211 264 213 222 119 124 113 121 127 132 134
17 4 343 296 297 320 300 4 337 335 258 282 199 293 229 181 185 266 273 351 264 330 2 343 156 62 260 177 190 221 193 209 213 241 227 184 162 259 108 124 128 125 114 101 103
3 347 320 295 325 328 342 336 315 338 314 261 264 281 277 243 196 188 178 216 229 290 326 35 131 159 212 181 158 325 202 218 240 279 153 180 209 144 132 137 141 145 148 157 162
Height
1526 1524 1523 1521 1519 1517 1516 1514 1512 1510 1508 1506 1504 1503 1500 1498 1497 1495 1493 1494 1493 1493 1496 1499 1500 1498 1497 1500 1498 1496 1506 1511 1498 1490 1484 1476 1478 1486 1484 1488 1491 1492 1491 1500 1510
1524 1523 1521 1519 1517 1515 1514 1512 1510 1508 1506 1504 1503 1501 1498 1495 1493 1490 1490 1490 1490 1492 1496 1499 1498 1495 1497 1499 1499 1498 1507 1498 1490 1486 1486 1476 1477 1482 1487 1490 1492 1495 1501 1506 1511
1523 1521 1518 1517 1515 1513 1512 1510 1508 1506 1504 1502 1501 1499 1496 1495 1492 1486 1486 1487 1488 1491 1496 1499 1496 1491 1496 1499 1501 1501 1506 1495 1483 1484 1484 1484 1482 1481 1487 1493 1486 1492 1499 1506 1511
1520 1518 1516 1514 1512 1510 1509 1507 1505 1503 1502 1500 1498 1497 1495 1494 1497 1486 1486 1486 1487 1490 1495 1500 1496 1499 1504 1500 1506 1501 1499 1489 1486 1486 1490 1490 1478 1482 1481 1484 1488 1491 1496 1504 1510
1518 1516 1514 1511 1509 1507 1505 1504 1502 1501 1499 1498 1496 1495 1494 1493 1485 1485 1485 1486 1486 1488 1494 1496 1496 1498 1501 1498 1502 1505 1506 1487 1484 1485 1482 1482 1477 1480 1485 1487 1493 1497 1501 1502 1506
1515 1513 1511 1508 1506 1504 1502 1500 1499 1497 1496 1495 1494 1493 1492 1491 1482 1482 1483 1484 1484 1485 1492 1496 1496 1493 1496 1496 1497 1498 1511 1506 1497 1481 1478 1470 1478 1478 1491 1490 1496 1499 1502 1505 1507
1512 1510 1507 1505 1502 1500 1498 1496 1495 1493 1492 1491 1491 1490 1488 1478 1480 1480 1482 1482 1482 1483 1488 1492 1491 1490 1493 1500 1499 1496 1497 1491 1478 1474 1478 1476 1487 1486 1485 1490 1495 1499 1502 1505 1508
1509 1506 1504 1501 1498 1496 1494 1492 1491 1489 1488 1488 1488 1487 1479 1473 1476 1475 1479 1479 1480 1481 1486 1488 1486 1490 1496 1500 1507 1508 1507 1515 1478 1477 1475 1476 1500 1487 1488 1490 1496 1499 1501 1504 1506
1506 1503 1501 1498 1494 1491 1489 1488 1486 1485 1484 1484 1485 1484 1473 1469 1468 1471 1474 1476 1477 1478 1481 1486 1486 1490 1494 1502 1519 1523 1525 1516 1502 1478 1478 1480 1492 1488 1488 1489 1494 1497 1498 1501 1504
1502 1499 1497 1494 1491 1487 1485 1483 1482 1481 1481 1481 1482 1485 1468 1464 1467 1468 1471 1473 1475 1476 1477 1480 1484 1488 1488 1499 1524 1523 1516 1505 1495 1477 1479 1488 1487 1487 1489 1488 1487 1491 1495 1497 1498
1498 1495 1493 1491 1488 1484 1481 1480 1481 1480 1477 1474 1469 1466 1459 1463 1464 1465 1468 1471 1472 1475 1477 1475 1486 1495 1483 1482 1487 1490 1496 1493 1482 1475 1483 1488 1492 1491 1490 1490 1488 1489 1491 1492 1492
1494 1491 1488 1487 1484 1482 1480 1479 1480 1482 1472 1465 1464 1461 1454 1462 1464 1459 1464 1468 1469 1476 1476 1482 1489 1477 1473 1476 1484 1492 1494 1492 1484 1482 1487 1488 1485 1478 1482 1481 1481 1482 1485 1488 1491
1490 1487 1484 1482 1480 1478 1476 1477 1476 1475 1473 1454 1451 1450 1449 1456 1456 1454 1459 1461 1465 1474 1475 1484 1475 1471 1475 1483 1483 1488 1495 1495 1491 1486 1479 1483 1487 1471 1467 1470 1475 1479 1477 1480 1482
1487 1484 1481 1478 1479 1474 1473 1474 1474 1471 1481 1453 1440 1434 1443 1451 1452 1448 1451 1457 1461 1470 1473 1481 1469 1473 1483 1486 1484 1488 1472 1480 1491 1499 1511 1485 1521 1470 1464 1464 1466 1469 1476 1474 1477
1483 1480 1478 1476 1474 1472 1474 1472 1471 1471 1507 1435 1431 1428 1429 1440 1441 1443 1447 1451 1458 1463 1472 1486 1473 1477 1492 1489 1479 1481 1468 1475 1488 1500 1506 1491 1512 1478 1462 1463 1459 1461 1465 1467 1470
1478 1476 1473 1474 1470 1471 1470 1469 1470 1488 1498 1438 1423 1426 1431 1437 1438 1440 1442 1448 1451 1457 1466 1474 1471 1472 1471 1476 1479 1477 1477 1475 1483 1503 1531 1495 1500 1487 1468 1453 1453 1454 1459 1462 1468
1472 1471 1468 1466 1466 1468 1468 1469 1487 1500 1445 1436 1430 1425 1430 1436 1440 1441 1445 1449 1459 1475 1476 1474 1474 1465 1468 1483 1484 1486 1506 1528 1520 1520 1521 1491 1506 1481 1456 1445 1443 1447 1453 1458 1463
1466 1463 1460 1459 1463 1466 1469 1474 1492 1458 1451 1430 1429 1432 1437 1433 1438 1439 1446 1455 1449 1452 1473 1485 1490 1464 1459 1463 1480 1485 1492 1511 1524 1532 1522 1491 1496 1474 1450 1445 1442 1451 1450 1456 1461
1459 1455 1452 1454 1458 1462 1468 1486 1473 1456 1440 1440 1433 1435 1438 1431 1433 1440 1446 1449 1443 1443 1466 1479 1476 1448 1447 1449 1465 1483 1494 1487 1521 1525 1526 1517 1486 1460 1452 1447 1447 1450 1450 1454 1458
1453 1449 1445 1448 1452 1458 1467 1473 1458 1443 1441 1442 1451 1435 1450 1436 1440 1440 1441 1431 1436 1433 1433 1452 1473 1452 1445 1447 1455 1469 1467 1496 1508 1519 1523 1516 1508 1490 1467 1456 1453 1454 1454 1457 1460
1452 1447 1444 1444 1451 1458 1471 1465 1448 1442 1444 1445 1448 1452 1445 1439 1430 1439 1434 1421 1420 1425 1428 1438 1452 1460 1453 1462 1465 1466 1473 1482 1493 1500 1521 1522 1504 1452 1449 1451 1451 1454 1453 1455 1459
1453 1451 1446 1447 1454 1458 1463 1450 1445 1442 1443 1444 1438 1438 1440 1430 1431 1433 1433 1422 1411 1415 1430 1427 1448 1472 1461 1454 1452 1454 1459 1470 1506 1499 1505 1494 1482 1437 1434 1435 1438 1448 1455 1455 1458
1456 1452 1451 1451 1458 1460 1451 1445 1444 1444 1440 1439 1434 1430 1426 1429 1431 1426 1421 1407 1408 1408 1415 1419 1451 1481 1473 1463 1457 1457 1455 1460 1463 1485 1497 1502 1480 1431 1431 1435 1435 1444 1453 1454 1458
1460 1459 1452 1452 1449 1450 1453 1449 1443 1436 1434 1433 1429 1427 1426 1426 1421 1423 1421 1408 1403 1398 1394 1404 1432 1442 1458 1458 1447 1454 1449 1446 1455 1483 1480 1480 1458 1437 1428 1430 1439 1445 1452 1456 1457
1465 1464 1465 1463 1453 1454 1453 1448 1442 1437 1428 1426 1425 1423 1423 1426 1426 1424 1417 1413 1404 1400 1398 1400 1430 1427 1430 1428 1434 1440 1436 1430 1437 1447 1466 1447 1450 1433 1426 1437 1447 1448 1454 1457 1459
1471 1471 1467 1463 1457 1453 1449 1446 1443 1432 1430 1421 1424 1414 1412 1420 1420 1422 1417 1418 1415 1407 1406 1402 1422 1423 1432 1427 1432 1437 1428 1432 1432 1434 1440 1445 1442 1426 1428 1440 1443 1448 1460 1461 1465
1475 1473 1471 1462 1458 1457 1452 1453 1444 1439 1421 1414 1413 1410 1410 1403 1403 1405 1409 1411 1410 1411 1415 1416 1425 1442 1446 1433 1434 1450 1431 1430 1427 1423 1424 1444 1429 1425 1430 1439 1444 1449 1444 1451 1469